Retour au catalogue

GONETS D1 4

ActifCommunicationsPO
NORAD 24728·PAYLOAD·🇷🇺 Russia

Lancé Feb 14, 1997 depuis Plesetsk Cosmodrome

Loading…

Prochains Passages (prochaines 24 heures)

TLE

FraisSource: Space-Track

Époque: Sep 14, 2026, 04:53 UTC

1 24728U 97006D   26257.20348887  .00000029  00000-0  10053-3 0  9990
2 24728  82.6086 179.5276 0007816 347.3271  12.7624 12.63923103364455

Suivez GONETS D1 4 en temps réel avec AllMySat

Download on the App Store